Find Kosmos-2128

NORAD ID: 21103 Int'l Des: 1991-009 Owner: UNKSR Country: SU operational
LEOCIRCULAR

实时位置

正在加载3D地球...

关于 Kosmos-2128

正在加载描述...

即将过境

Passes for default location (London). Set your location on the main map for personalized predictions.

高度历史

Loading altitude history...

两行轨道根数

1 21103U 91009D 26107.09277954 .00000013 00000-0 18616-3 0 9994
2 21103 74.0323 339.4951 0014890 170.9056 189.2268 12.51924560607590
Epoch: Apr 17, 2026 • Age: 11 hours

当前状态

高度 1467.2 km
速度 7.13 km/s
星下点 -45.34°S, 134.59°E
发射日期 Feb 12, 1991
运行时间 35.1 years
类型 other

技术详情

分类 Payload
质量 60.00 kg
干质量 60.00 kg
总质量 60.00 kg
长度 0.80 m
直径 0.80 m
跨度 0.80 m
形状 Poly
制造商 NPOPM
平台类型 Strela-1 11F625
阶段状态 In Orbit
所有者/国家 UNKSR/SU

Most Searched